Faribault, MN

10:05 PM CDT on September 19, 2017 (GMT -0500)
Faribault Municipal

Weather History for KFBL - July, 2013

Change the Weather History Date:

Tuesday, July 30, 2013

  Actual Average Record
Temperature  
Mean Temperature 68 °F -  
Max Temperature 73 °F 81 °F 96 °F (1955)
Min Temperature 62 °F 59 °F 45 °F (1971)
Cooling Degree Days 2    
Growing Degree Days 18 (Base 50)    
Moisture  
Dew Point 62 °F    
Average Humidity 82    
Maximum Humidity 100    
Minimum Humidity 73    
Precipitation  
Precipitation 0.00 in - - ()
Sea Level Pressure  
Sea Level Pressure 30.10 in    
Wind  
Wind Speed 3 mph (South)    
Max Wind Speed 9 mph    
Max Gust Speed -    
Visibility 10 miles    
Events Rain    
Averages and records for this station are not official NWS values.
T = Trace of Precipitation, MM = Missing Value Source: NWS Daily Summary

Daily Weather History Graph

Daily Weather History Graph

Search for Another Location

Airport or City:

Trip Planner

Search our weather history database for the weather conditions in past years. The results will help you decide how hot, cold, wet, or windy it might be!

Date:

Astronomy

Jul. 30, 2013 Rise Set
Actual Time 5:58 AM CDT 8:40 PM CDT
Civil Twilight 5:25 AM CDT 9:13 PM CDT
Nautical Twilight 4:43 AM CDT 9:55 PM CDT
Astronomical Twilight 3:54 AM CDT 10:43 PM CDT
Moon 12:18 AM CDT (7/30) 2:59 PM CDT (7/30)
Length of Visible Light 15h 48m
Length of Day
14h 41m
Last Quarter, 41% of the Moon is Illuminated
Jul 30
Last Quarter
Aug 6
New
Aug 14
First Quarter
Aug 20
Full
Aug 28
Last Quarter

Hourly Weather History & Observations

Time (CDT) Temp. Dew Point Humidity Pressure Visibility Wind Dir Wind Speed Gust Speed Precip Events Conditions
12:14 AM 66.2 °F 57.2 °F 73% 30.11 in 10.0 mi South 5.8 mph - N/A   Overcast
12:34 AM 66.2 °F 57.2 °F 73% 30.10 in 10.0 mi SSE 4.6 mph - N/A   Overcast
12:54 AM 66.2 °F 57.2 °F 73% 30.09 in 10.0 mi SSE 3.5 mph - N/A   Overcast
1:14 AM 66.2 °F 57.2 °F 73% 30.10 in 10.0 mi Calm Calm - N/A   Overcast
1:34 AM 66.2 °F 57.2 °F 73% 30.09 in 10.0 mi Calm Calm - N/A   Overcast
1:54 AM 66.2 °F 57.2 °F 73% 30.10 in 10.0 mi Calm Calm - N/A   Overcast
2:14 AM 64.4 °F 57.2 °F 77% 30.09 in 10.0 mi Calm Calm - N/A   Overcast
2:34 AM 64.4 °F 57.2 °F 77% 30.09 in 10.0 mi SE 4.6 mph - N/A   Overcast
2:54 AM 64.4 °F 57.2 °F 77% 30.09 in 10.0 mi SSE 3.5 mph - N/A   Overcast
3:14 AM 64.4 °F 57.2 °F 77% 30.09 in 10.0 mi Calm Calm - N/A   Overcast
3:34 AM 64.4 °F 57.2 °F 77% 30.10 in 10.0 mi South 3.5 mph - N/A   Overcast
3:54 AM 64.4 °F 57.2 °F 77% 30.10 in 10.0 mi SSE 4.6 mph - N/A   Overcast
4:14 AM 64.4 °F 57.2 °F 77% 30.10 in 10.0 mi SE 3.5 mph - N/A   Overcast
4:33 AM 64.4 °F 57.2 °F 77% 30.09 in 10.0 mi ESE 3.5 mph - N/A   Overcast
4:54 AM 64.4 °F 57.2 °F 77% 30.09 in 10.0 mi SE 3.5 mph - N/A   Overcast
5:14 AM 64.4 °F 57.2 °F 77% 30.09 in 10.0 mi ESE 3.5 mph - N/A   Overcast
5:34 AM 64.4 °F 57.2 °F 77% 30.10 in 10.0 mi Calm Calm - N/A   Overcast
5:54 AM 64.4 °F 57.2 °F 77% 30.10 in 10.0 mi ESE 4.6 mph - N/A   Overcast
6:14 AM 64.4 °F 57.2 °F 77% 30.10 in 10.0 mi ESE 4.6 mph - N/A   Overcast
6:34 AM 64.4 °F 57.2 °F 77% 30.10 in 10.0 mi ESE 3.5 mph - N/A   Overcast
6:54 AM 64.4 °F 57.2 °F 77% 30.11 in 10.0 mi SE 4.6 mph - N/A   Overcast
7:14 AM 64.4 °F 57.2 °F 77% 30.11 in 10.0 mi Calm Calm - N/A   Overcast
7:34 AM 64.4 °F 59.0 °F 83% 30.11 in 10.0 mi SE 3.5 mph - N/A   Overcast
7:54 AM 64.4 °F 60.8 °F 88% 30.11 in 10.0 mi SSE 3.5 mph - N/A Rain Light Rain
8:14 AM 66.2 °F 59.0 °F 78% 30.12 in 10.0 mi Calm Calm - N/A   Overcast
8:33 AM 64.4 °F 59.0 °F 83% 30.12 in 10.0 mi South 3.5 mph - N/A   Overcast
8:54 AM 66.2 °F 59.0 °F 78% 30.11 in 10.0 mi SSE 4.6 mph - N/A   Overcast
9:14 AM 66.2 °F 60.8 °F 83% 30.11 in 10.0 mi SSE 3.5 mph - N/A   Overcast
9:34 AM 66.2 °F 60.8 °F 83% 30.11 in 10.0 mi Calm Calm - N/A   Overcast
9:54 AM 66.2 °F 60.8 °F 83% 30.11 in 10.0 mi Calm Calm - N/A   Overcast
10:14 AM 66.2 °F 60.8 °F 83% 30.11 in 10.0 mi Calm Calm - N/A   Overcast
10:34 AM 66.2 °F 60.8 °F 83% 30.11 in 10.0 mi Calm Calm - N/A   Overcast
10:54 AM 66.2 °F 60.8 °F 83% 30.11 in 10.0 mi SSW 3.5 mph - N/A   Overcast
11:13 AM 66.2 °F 62.6 °F 88% 30.11 in 10.0 mi SSE 5.8 mph - N/A   Overcast
11:34 AM 66.2 °F 62.6 °F 88% 30.11 in 10.0 mi South 5.8 mph - N/A   Overcast
11:54 AM 66.2 °F 62.6 °F 88% 30.11 in 10.0 mi SSE 5.8 mph - N/A   Overcast
12:13 PM 68.0 °F 62.6 °F 83% 30.11 in 10.0 mi South 5.8 mph - N/A   Overcast
12:34 PM 69.8 °F 62.6 °F 78% 30.11 in 10.0 mi SE 4.6 mph - N/A   Mostly Cloudy
12:54 PM 69.8 °F 64.4 °F 83% 30.10 in 10.0 mi SSE 4.6 mph - N/A   Mostly Cloudy
1:14 PM 69.8 °F 64.4 °F 83% 30.09 in 10.0 mi SSE 6.9 mph - N/A   Scattered Clouds
1:34 PM 71.6 °F 64.4 °F 78% 30.09 in 10.0 mi SSE 9.2 mph - N/A   Scattered Clouds
1:54 PM 71.6 °F 64.4 °F 78% 30.09 in 10.0 mi South 6.9 mph - N/A   Mostly Cloudy
2:14 PM 71.6 °F 64.4 °F 78% 30.09 in 10.0 mi South 4.6 mph - N/A   Overcast
2:34 PM 71.6 °F 64.4 °F 78% 30.09 in 10.0 mi SW 5.8 mph - N/A   Overcast
2:53 PM 73.4 °F 64.4 °F 73% 30.09 in 10.0 mi SW 5.8 mph - N/A   Mostly Cloudy
3:14 PM 71.6 °F 64.4 °F 78% 30.08 in 10.0 mi SSW 3.5 mph - N/A   Overcast
3:34 PM 71.6 °F 64.4 °F 78% 30.08 in 10.0 mi Calm Calm - N/A   Overcast
3:54 PM 71.6 °F 64.4 °F 78% 30.08 in 10.0 mi Calm Calm - N/A   Overcast
4:14 PM 71.6 °F 64.4 °F 78% 30.08 in 10.0 mi Calm Calm - N/A   Overcast
4:33 PM 73.4 °F 64.4 °F 73% 30.08 in 10.0 mi Calm Calm - N/A   Overcast
4:54 PM 73.4 °F 64.4 °F 73% 30.08 in 10.0 mi Calm Calm - N/A   Overcast
5:14 PM 73.4 °F 64.4 °F 73% 30.08 in 10.0 mi Calm Calm - N/A   Overcast
5:34 PM 73.4 °F 64.4 °F 73% 30.08 in 10.0 mi Calm Calm - N/A   Overcast
5:54 PM 71.6 °F 66.2 °F 83% 30.08 in 10.0 mi WNW 4.6 mph - N/A   Overcast
6:14 PM 71.6 °F 66.2 °F 83% 30.08 in 10.0 mi West 4.6 mph - N/A   Overcast
6:34 PM 71.6 °F 66.2 °F 83% 30.08 in 10.0 mi WNW 4.6 mph - N/A   Overcast
6:54 PM 71.6 °F 66.2 °F 83% 30.08 in 10.0 mi NNW 6.9 mph - N/A   Overcast
7:14 PM 69.8 °F 66.2 °F 88% 30.08 in 10.0 mi NW 4.6 mph - N/A   Overcast
7:34 PM 69.8 °F 66.2 °F 88% 30.09 in 10.0 mi NW 3.5 mph - N/A   Overcast
7:53 PM 69.8 °F 66.2 °F 88% 30.10 in 10.0 mi WNW 3.5 mph - N/A   Overcast
8:14 PM 69.8 °F 66.2 °F 88% 30.10 in 10.0 mi WNW 3.5 mph - N/A   Light Drizzle
8:34 PM 68.0 °F 64.4 °F 88% 30.08 in 10.0 mi WNW 4.6 mph - N/A   Overcast
8:54 PM 68.0 °F 66.2 °F 94% 30.09 in 10.0 mi WNW 4.6 mph - N/A   Overcast
9:14 PM 66.2 °F 66.2 °F 100% 30.09 in 7.0 mi Calm Calm - N/A Rain Rain
9:34 PM 66.2 °F 66.2 °F 100% 30.10 in 7.0 mi Calm Calm - N/A Rain Light Rain
9:54 PM 66.2 °F 66.2 °F 100% 30.10 in 10.0 mi Calm Calm - N/A   Mostly Cloudy
10:14 PM 66.2 °F 66.2 °F 100% 30.08 in 7.0 mi Calm Calm - N/A   Scattered Clouds
10:34 PM 64.4 °F 64.4 °F 100% 30.08 in 7.0 mi Calm Calm - N/A   Clear
10:54 PM 64.4 °F 64.4 °F 100% 30.07 in 7.0 mi Calm Calm - N/A   Clear
11:14 PM 64.4 °F 64.4 °F 100% 30.09 in 7.0 mi WNW 3.5 mph - N/A   Clear
11:34 PM 62.6 °F 62.6 °F 100% 30.09 in 5.0 mi Calm Calm - N/A   Scattered Clouds
11:54 PM 62.6 °F 62.6 °F 100% 30.09 in 1.5 mi Calm Calm - N/A   Mostly Cloudy